EUTELSAT 16C

Last updated on Feb. 7, 2018, 12:19 a.m. UTC

1 26243U 00019A   18035.81184084 -.00000164  00000-0  00000+0 0  9999
2 26243   4.6892  65.2910 0006611  62.1025 302.1188  0.99274932 65167
UTC
Height (km)
Latitude
Longitude
Inclination
Orbital Period
UTC large
Height (km)
Speed (km/s)
/
Latitude / Longitude
Inclination (degrees)
Orbital Period (minutes)
Azimuth
Elevation
Range (km)
Doppler Factor
iOS Compass Heading
iOS Angle

Next 30 passes for location: Hong Kong

Rise time Rise Azimuth (degrees) Set time Set Azimuth (degrees) Duration Max altitude (degrees)

No matching passes for this satellites